Weather in Timra

Sweden     62°29′21″N   17°19′44″E
temp.,
°C
wind,
m/s
gust,
m/s
humid.,
%
clouds,
%
prec.,
mm/h
press.,
hPa
HPBL,
m
6 march, sat
sat601:000wsw51378100 0.7 1011735
04:00+1w51479100 0.1 1006835
07:00+2w51388100 0.1 1004839
10:00+3w51588100 0.3 10001372
13:00+3nw71474100 0.4 9991586
16:00−1nw8185365 0.1 10002228
19:00−4nw9225556 0.4 10012891
22:00−7wnw720632 0.0 10002150
7 march, sun
sun701:00−7nw8214911 0.0 9991856
04:00−6nw819550 0.0 9991282
07:00−5nw617600 0.0 10011368
10:00−3nnw8155941 0.0 10061440
13:00−1nnw6136071 0.0 10091475
16:00−2nnw6135887 0.0 10121467
19:00−4n4146354 0.0 10151205
22:00−6nnw312740 0.0 1017807
8 march, mon
mon801:00−6nnw310750 0.0 1019397
04:00−8nw24802 0.0 1020134
07:00−9wnw227911 0.0 102167
10:00−4w24615 0.0 1021262
13:00−2w376843 0.0 1019465
16:00−1w2870100 0.0 1017375
19:00−4w267894 0.0 1016153
22:00−4wnw2979100 0.0 1015247
9 march, tue
tue901:00−4w31085100 0.1 1013333
04:00−3wsw41092100 1.3 1011701
07:00−3nw3990100 1.3 1011450
10:00−2nne368190 0.0 1013661
13:00−3ne357895 0.1 1015804
16:00−4ene3578100 0.1 1018696
19:00−7ene278865 0.1 1020382
22:00−7n129166 0.1 1020183
10 march, wed
wed1001:00−8nne119483 0.1 102021
04:00−8ese0192100 0.0 101921
07:00−7se1591100 0.0 1018272
10:00−4sse4779100 0.1 1017731
13:00−4sse4880100 0.1 1014709
16:00−4sse4986100 0.1 1010719
19:00−3sse31088100 0.2 1008811
22:00−4sse31091100 0.0 1005652